Back to catalog

GLOBALSTAR M096

AliveCommunicationsLEO
NORAD 39075·PAYLOAD·🇺🇸 United States

Launched Feb 6, 2013 from Baikonur Cosmodrome

Loading…

Next Passes (next 24 hours)

TLE

FreshSource: Space-Track

Epoch: Sep 14, 2026, 13:09 UTC

1 39075U 13005D   26257.54818296 -.00000097  00000-0  40097-4 0  9999
2 39075  52.0071 287.5946 0000520 114.9502 245.1419 12.62264469628678

Track GLOBALSTAR M096 in real time with AllMySat

Download on the App Store